Delta Virtual Airport Information Service

Tokyo Narita International Airport

ICAO: RJAA Country: Japan
Latitude: 35.7647 Longitude: 140.386
Latest Arrival : FDX169 (2B) (PANC-RJAA) Latest Departure : HVN301 (RJAA-VVTS)


WX CaptureLIVE
Data provided by noaa.gov | Fetched at 07:33:08

METAR : RJAA 061300Z 03008KT 9999 FEW020 BKN180 10/04 Q1021 NOSIG

TAF : RJAA 061105Z 0612/0718 02013KT 9999 FEW030


Runway Data for RJAA
Data provided by openaviationdata.com

Runway ID Mag Var Hdg Length Elevation Surface ILS Freq ILS Id ILS Slope
16L -7 156° 8202 ft 135 ft Asphalt 110.7 ITM 3
16R -7 156° 13132 ft 135 ft Asphalt 111.5 IKF 3
34L -7 336° 13132 ft 135 ft Asphalt 111.9 IYQ 3
34R -7 336° 8202 ft 135 ft Asphalt 110.9 ITJ 3

Tokyo Narita International Airport, Japan
Use only for reference purposes



Not for navigational purposes.